Location: Baller�as
(41.9020°N, 0.1554°W)
Time: 01:31:56
(UTC+00:00)

SL-4 R/B - Pass Details

Date: 10 August 2020
Orbit: 428 x 665 km, 51.6° (Epoch: 22 September)

Event Time Altitude Azimuth Distance (km) Brightness Sun altitude
Rises 20:26:50 0° 246° (WSW) 2,725 6.0 -13.8°
Reaches altitude 10° 20:29:11 10° 251° (WSW) 1,790 5.1 -14.2°
Maximum altitude 20:33:10 54° 330° (NNW) 621 2.6 -14.8°
Drops below altitude 10° 20:36:51 10° 49° (NE) 1,661 4.4 -15.3°
Sets 20:38:58 0° 54° (NE) 2,507 5.2 -15.6°
